"Sample Date","Sample Time","Sensor Name","Sample Value","Units","Flow Rate","Sample Interval","Sample Volume","Laser Status","Number Channels","Micron Size 0","Counts/Channel 0","Micron Size 1","Counts/Channel 1","Micron Size 2","Counts/Channel 2","Micron Size 3","Counts/Channel 3","Micron Size 4","Counts/Channel 4","Micron Size 5","Counts/Channel 5","Micron Size 6","Counts/Channel 6","Micron Size 7","Counts/Channel 7","Micron Size 8","Counts/Channel 8","Micron Size 9","Counts/Channel 9","Micron Size 10","Counts/Channel 10","Micron Size 11","Counts/Channel 11","Micron Size 12","Counts/Channel 12","Micron Size 13","Counts/Channel 13","Micron Size 14","Counts/Channel 14","Micron Size 15","Counts/Channel 15","Micron Size 16","Counts/Channel 16","Micron Size 17","Counts/Channel 17","Micron Size 18","Counts/Channel 18","Micron Size 19","Counts/Channel 19","Micron Size 20","Counts/Channel 20","Micron Size 21","Counts/Channel 21","Micron Size 22","Counts/Channel 22","Micron Size 23","Counts/Channel 23","Micron Size 24","Counts/Channel 24","Micron Size 25","Counts/Channel 25","Micron Size 26","Counts/Channel 26","Micron Size 27","Counts/Channel 27","Micron Size 28","Counts/Channel 28","Micron Size 29","Counts/Channel 29","Micron Size 30","Counts/Channel 30","Micron Size 31","Counts/Channel 31"
"07/01/06","06:00:04","AMMA06",68908.000,"cc",28349.848,6.00,2834.985,1,6,0.100,43933.000,0.200,19783.000,0.300,4046.000,0.500,665.000,1.000,481.000,5.000,0
"07/01/06","06:00:10","AMMA06",69197.000,"cc",28292.340,6.00,2829.234,1,6,0.100,43876.000,0.200,20009.000,0.300,4143.000,0.500,729.000,1.000,439.000,5.000,1.000
"07/01/06","06:00:16","AMMA06",69274.000,"cc",28341.709,6.00,2834.171,1,6,0.100,44198.000,0.200,19773.000,0.300,4160.000,0.500,667.000,1.000,476.000,5.000,0
"07/01/06","06:00:22","AMMA06",69269.000,"cc",28319.535,6.00,2831.954,1,6,0.100,43715.000,0.200,20182.000,0.300,4205.000,0.500,713.000,1.000,454.000,5.000,0
"07/01/06","06:00:28","AMMA06",69296.000,"cc",28339.119,6.00,2833.912,1,6,0.100,43944.000,0.200,20026.000,0.300,4208.000,0.500,681.000,1.000,437.000,5.000,0
"07/01/06","06:00:34","AMMA06",69093.000,"cc",28324.986,6.00,2832.499,1,6,0.100,43860.000,0.200,19978.000,0.300,4130.000,0.500,672.000,1.000,453.000,5.000,0
"07/01/06","06:00:40","AMMA06",68813.000,"cc",28291.551,6.00,2829.155,1,6,0.100,43605.000,0.200,19938.000,0.300,4104.000,0.500,712.000,1.000,454.000,5.000,0
"07/01/06","06:00:46","AMMA06",69071.000,"cc",28349.555,6.00,2834.956,1,6,0.100,43806.000,0.200,19944.000,0.300,4164.000,0.500,702.000,1.000,454.000,5.000,1.000
"07/01/06","06:00:52","AMMA06",69295.000,"cc",28301.061,6.00,2830.106,1,6,0.100,44053.000,0.200,19910.000,0.300,4235.000,0.500,671.000,1.000,424.000,5.000,2.000
"07/01/06","06:00:58","AMMA06",69387.000,"cc",28309.617,6.00,2830.962,1,6,0.100,44517.000,0.200,19634.000,0.300,4103.000,0.500,697.000,1.000,433.000,5.000,3.000
"07/01/06","06:01:04","AMMA06",68073.000,"cc",28301.557,6.00,2830.156,1,6,0.100,42998.000,0.200,19848.000,0.300,4056.000,0.500,709.000,1.000,462.000,5.000,0
"07/01/06","06:01:10","AMMA06",66050.000,"cc",28334.398,6.00,2833.440,1,6,0.100,41766.000,0.200,19276.000,0.300,3876.000,0.500,650.000,1.000,479.000,5.000,3.000
"07/01/06","06:01:16","AMMA06",65564.000,"cc",28308.822,6.00,2830.882,1,6,0.100,41275.000,0.200,19191.000,0.300,3899.000,0.500,687.000,1.000,512.000,5.000,0
"07/01/06","06:01:22","AMMA06",65051.000,"cc",28322.379,6.00,2832.238,1,6,0.100,40856.000,0.200,19155.000,0.300,3836.000,0.500,712.000,1.000,491.000,5.000,1.000
"07/01/06","06:01:28","AMMA06",65395.000,"cc",28316.826,6.00,2831.683,1,6,0.100,41351.000,0.200,19135.000,0.300,3824.000,0.500,641.000,1.000,444.000,5.000,0
"07/01/06","06:01:34","AMMA06",65085.000,"cc",28338.428,6.00,2833.843,1,6,0.100,41141.000,0.200,18931.000,0.300,3875.000,0.500,677.000,1.000,461.000,5.000,0
"07/01/06","06:01:40","AMMA06",64854.000,"cc",28324.459,6.00,2832.446,1,6,0.100,40803.000,0.200,19045.000,0.300,3809.000,0.500,721.000,1.000,475.000,5.000,1.000
"07/01/06","06:01:46","AMMA06",65371.000,"cc",28270.727,6.00,2827.073,1,6,0.100,41238.000,0.200,19196.000,0.300,3813.000,0.500,650.000,1.000,474.000,5.000,0
"07/01/06","06:01:52","AMMA06",65582.000,"cc",28326.830,6.00,2832.683,1,6,0.100,41230.000,0.200,19390.000,0.300,3873.000,0.500,666.000,1.000,422.000,5.000,1.000
"07/01/06","06:01:58","AMMA06",65002.000,"cc",28335.270,6.00,2833.527,1,6,0.100,41030.000,0.200,18981.000,0.300,3834.000,0.500,699.000,1.000,458.000,5.000,0
"07/01/06","06:02:04","AMMA06",64976.000,"cc",28260.926,6.00,2826.093,1,6,0.100,41054.000,0.200,19005.000,0.300,3794.000,0.500,676.000,1.000,447.000,5.000,0
"07/01/06","06:02:10","AMMA06",64086.000,"cc",28346.453,6.00,2834.646,1,6,0.100,40473.000,0.200,18674.000,0.300,3795.000,0.500,676.000,1.000,468.000,5.000,0
"07/01/06","06:02:16","AMMA06",64320.000,"cc",28336.498,6.00,2833.650,1,6,0.100,40381.000,0.200,19003.000,0.300,3715.000,0.500,719.000,1.000,502.000,5.000,0
"07/01/06","06:02:22","AMMA06",65026.000,"cc",28303.643,6.00,2830.365,1,6,0.100,41207.000,0.200,19072.000,0.300,3560.000,0.500,708.000,1.000,478.000,5.000,1.000
"07/01/06","06:02:28","AMMA06",65315.000,"cc",28329.359,6.00,2832.936,1,6,0.100,41233.000,0.200,19227.000,0.300,3693.000,0.500,691.000,1.000,471.000,5.000,0
"07/01/06","06:02:34","AMMA06",65432.000,"cc",28337.006,6.00,2833.701,1,6,0.100,41215.000,0.200,19230.000,0.300,3804.000,0.500,708.000,1.000,475.000,5.000,0
"07/01/06","06:02:40","AMMA06",65139.000,"cc",28264.580,6.00,2826.458,1,6,0.100,40961.000,0.200,19165.000,0.300,3839.000,0.500,691.000,1.000,480.000,5.000,3.000
"07/01/06","06:02:46","AMMA06",65582.000,"cc",28322.477,6.00,2832.248,1,6,0.100,41501.000,0.200,19264.000,0.300,3705.000,0.500,678.000,1.000,433.000,5.000,1.000
"07/01/06","06:02:52","AMMA06",66018.000,"cc",28340.633,6.00,2834.064,1,6,0.100,41309.000,0.200,19620.000,0.300,3962.000,0.500,662.000,1.000,465.000,5.000,0
"07/01/06","06:02:58","AMMA06",65943.000,"cc",28289.510,6.00,2828.951,1,6,0.100,41222.000,0.200,19630.000,0.300,3951.000,0.500,686.000,1.000,453.000,5.000,1.000
"07/01/06","06:03:04","AMMA06",66170.000,"cc",28280.244,6.00,2828.025,1,6,0.100,41613.000,0.200,19438.000,0.300,3997.000,0.500,669.000,1.000,452.000,5.000,1.000
"07/01/06","06:03:10","AMMA06",66753.000,"cc",28328.199,6.00,2832.820,1,6,0.100,41917.000,0.200,19662.000,0.300,4015.000,0.500,692.000,1.000,466.000,5.000,1.000
"07/01/06","06:03:16","AMMA06",67387.000,"cc",28308.031,6.00,2830.803,1,6,0.100,42522.000,0.200,19613.000,0.300,4085.000,0.500,705.000,1.000,462.000,5.000,0
"07/01/06","06:03:22","AMMA06",67150.000,"cc",28260.106,6.00,2826.011,1,6,0.100,42204.000,0.200,19801.000,0.300,4012.000,0.500,670.000,1.000,462.000,5.000,1.000
"07/01/06","06:03:28","AMMA06",67054.000,"cc",28369.342,6.00,2836.934,1,6,0.100,42127.000,0.200,19779.000,0.300,4027.000,0.500,652.000,1.000,468.000,5.000,1.000
"07/01/06","06:03:34","AMMA06",66806.000,"cc",28330.379,6.00,2833.038,1,6,0.100,41981.000,0.200,19644.000,0.300,3972.000,0.500,769.000,1.000,439.000,5.000,1.000
"07/01/06","06:03:40","AMMA06",66788.000,"cc",28318.893,6.00,2831.889,1,6,0.100,41866.000,0.200,19698.000,0.300,4057.000,0.500,696.000,1.000,471.000,5.000,0
"07/01/06","06:03:46","AMMA06",67007.000,"cc",28360.826,6.00,2836.083,1,6,0.100,42257.000,0.200,19611.000,0.300,4014.000,0.500,691.000,1.000,434.000,5.000,0
"07/01/06","06:03:52","AMMA06",67438.000,"cc",28298.709,6.00,2829.871,1,6,0.100,42535.000,0.200,19873.000,0.300,3902.000,0.500,696.000,1.000,431.000,5.000,1.000
"07/01/06","06:03:58","AMMA06",67614.000,"cc",28315.443,6.00,2831.544,1,6,0.100,42684.000,0.200,19598.000,0.300,4118.000,0.500,727.000,1.000,485.000,5.000,2.000
"07/01/06","06:04:04","AMMA06",67905.000,"cc",28319.672,6.00,2831.967,1,6,0.100,42913.000,0.200,19835.000,0.300,4005.000,0.500,704.000,1.000,448.000,5.000,0
"07/01/06","06:04:10","AMMA06",68677.000,"cc",28301.033,6.00,2830.104,1,6,0.100,43418.000,0.200,20171.000,0.300,3940.000,0.500,674.000,1.000,474.000,5.000,0
"07/01/06","06:04:16","AMMA06",67818.000,"cc",28379.229,6.00,2837.923,1,6,0.100,42608.000,0.200,20067.000,0.300,4007.000,0.500,690.000,1.000,446.000,5.000,0
"07/01/06","06:04:22","AMMA06",67443.000,"cc",28291.922,6.00,2829.192,1,6,0.100,42478.000,0.200,19785.000,0.300,4032.000,0.500,706.000,1.000,442.000,5.000,0
"07/01/06","06:04:28","AMMA06",66339.000,"cc",28295.621,6.00,2829.562,1,6,0.100,41635.000,0.200,19583.000,0.300,3987.000,0.500,700.000,1.000,434.000,5.000,0
"07/01/06","06:04:34","AMMA06",65955.000,"cc",28261.773,6.00,2826.178,1,6,0.100,41402.000,0.200,19501.000,0.300,3921.000,0.500,675.000,1.000,456.000,5.000,0
"07/01/06","06:04:40","AMMA06",64434.000,"cc",28303.090,6.00,2830.309,1,6,0.100,40049.000,0.200,19202.000,0.300,4044.000,0.500,669.000,1.000,470.000,5.000,0
"07/01/06","06:04:46","AMMA06",65004.000,"cc",28345.193,6.00,2834.520,1,6,0.100,40490.000,0.200,19422.000,0.300,3954.000,0.500,674.000,1.000,463.000,5.000,1.000
"07/01/06","06:04:52","AMMA06",65456.000,"cc",28320.191,6.00,2832.019,1,6,0.100,40814.000,0.200,19543.000,0.300,3965.000,0.500,647.000,1.000,486.000,5.000,1.000
"07/01/06","06:04:58","AMMA06",64560.000,"cc",28308.389,6.00,2830.839,1,6,0.100,40402.000,0.200,19105.000,0.300,3937.000,0.500,673.000,1.000,442.000,5.000,1.000
"07/01/06","06:05:04","AMMA06",64641.000,"cc",28323.193,6.00,2832.320,1,6,0.100,40149.000,0.200,19316.000,0.300,4053.000,0.500,689.000,1.000,433.000,5.000,1.000
"07/01/06","06:05:10","AMMA06",63318.000,"cc",28336.539,6.00,2833.654,1,6,0.100,39014.000,0.200,19288.000,0.300,3908.000,0.500,648.000,1.000,460.000,5.000,0
"07/01/06","06:05:16","AMMA06",63491.000,"cc",28289.779,6.00,2828.978,1,6,0.100,39211.000,0.200,19232.000,0.300,3846.000,0.500,722.000,1.000,478.000,5.000,2.000
"07/01/06","06:05:22","AMMA06",63275.000,"cc",28356.660,6.00,2835.666,1,6,0.100,38887.000,0.200,19373.000,0.300,3887.000,0.500,669.000,1.000,459.000,5.000,0
"07/01/06","06:05:28","AMMA06",63655.000,"cc",28336.523,6.00,2833.653,1,6,0.100,39262.000,0.200,19386.000,0.300,3869.000,0.500,676.000,1.000,461.000,5.000,1.000
"07/01/06","06:05:34","AMMA06",63687.000,"cc",28336.852,6.00,2833.685,1,6,0.100,39185.000,0.200,19311.000,0.300,4048.000,0.500,666.000,1.000,476.000,5.000,1.000
"07/01/06","06:05:40","AMMA06",63834.000,"cc",28351.279,6.00,2835.128,1,6,0.100,39323.000,0.200,19405.000,0.300,3972.000,0.500,664.000,1.000,470.000,5.000,0
"07/01/06","06:05:46","AMMA06",63536.000,"cc",28265.951,6.00,2826.595,1,6,0.100,39348.000,0.200,19232.000,0.300,3777.000,0.500,703.000,1.000,476.000,5.000,0
"07/01/06","06:05:52","AMMA06",63607.000,"cc",28289.590,6.00,2828.959,1,6,0.100,39283.000,0.200,19156.000,0.300,3984.000,0.500,700.000,1.000,484.000,5.000,0
"07/01/06","06:05:58","AMMA06",63472.000,"cc",28355.943,6.00,2835.595,1,6,0.100,38969.000,0.200,19385.000,0.300,3961.000,0.500,675.000,1.000,481.000,5.000,1.000
"07/01/06","06:06:04","AMMA06",62666.000,"cc",28330.303,6.00,2833.031,1,6,0.100,38505.000,0.200,19129.000,0.300,3870.000,0.500,664.000,1.000,497.000,5.000,1.000
"07/01/06","06:06:10","AMMA06",63560.000,"cc",28313.004,6.00,2831.301,1,6,0.100,39169.000,0.200,19346.000,0.300,3904.000,0.500,656.000,1.000,485.000,5.000,0
"07/01/06","06:06:16","AMMA06",63106.000,"cc",28317.428,6.00,2831.743,1,6,0.100,38799.000,0.200,19355.000,0.300,3829.000,0.500,692.000,1.000,431.000,5.000,0
"07/01/06","06:06:22","AMMA06",63903.000,"cc",28321.949,6.00,2832.195,1,6,0.100,39435.000,0.200,19357.000,0.300,3922.000,0.500,669.000,1.000,520.000,5.000,0
"07/01/06","06:06:28","AMMA06",63945.000,"cc",28293.240,6.00,2829.324,1,6,0.100,39372.000,0.200,19419.000,0.300,3989.000,0.500,694.000,1.000,471.000,5.000,0
"07/01/06","06:06:34","AMMA06",63802.000,"cc",28277.518,6.00,2827.752,1,6,0.100,39508.000,0.200,19246.000,0.300,3876.000,0.500,682.000,1.000,490.000,5.000,0
"07/01/06","06:06:40","AMMA06",63935.000,"cc",28325.748,6.00,2832.575,1,6,0.100,39373.000,0.200,19449.000,0.300,3989.000,0.500,678.000,1.000,446.000,5.000,0
"07/01/06","06:06:46","AMMA06",63507.000,"cc",28320.065,6.00,2832.007,1,6,0.100,39155.000,0.200,19328.000,0.300,3922.000,0.500,641.000,1.000,461.000,5.000,0
"07/01/06","06:06:52","AMMA06",62810.000,"cc",28331.225,6.00,2833.123,1,6,0.100,38710.000,0.200,19034.000,0.300,3890.000,0.500,717.000,1.000,458.000,5.000,1.000
"07/01/06","06:06:58","AMMA06",62534.000,"cc",28377.002,6.00,2837.700,1,6,0.100,38286.000,0.200,19201.000,0.300,3948.000,0.500,659.000,1.000,440.000,5.000,0
"07/01/06","06:07:04","AMMA06",60458.000,"cc",28270.223,6.00,2827.023,1,6,0.100,36665.000,0.200,18680.000,0.300,3956.000,0.500,681.000,1.000,475.000,5.000,1.000
"07/01/06","06:07:10","AMMA06",60138.000,"cc",28326.084,6.00,2832.609,1,6,0.100,36234.000,0.200,19066.000,0.300,3743.000,0.500,626.000,1.000,469.000,5.000,0
"07/01/06","06:07:16","AMMA06",60247.000,"cc",28270.414,6.00,2827.042,1,6,0.100,36445.000,0.200,18740.000,0.300,3883.000,0.500,697.000,1.000,481.000,5.000,1.000
"07/01/06","06:07:22","AMMA06",60303.000,"cc",28294.414,6.00,2829.442,1,6,0.100,36122.000,0.200,19140.000,0.300,3902.000,0.500,656.000,1.000,483.000,5.000,0
"07/01/06","06:07:28","AMMA06",59868.000,"cc",28308.559,6.00,2830.856,1,6,0.100,35925.000,0.200,19045.000,0.300,3820.000,0.500,607.000,1.000,471.000,5.000,0
"07/01/06","06:07:34","AMMA06",60233.000,"cc",28336.440,6.00,2833.644,1,6,0.100,36163.000,0.200,19104.000,0.300,3830.000,0.500,695.000,1.000,440.000,5.000,1.000
"07/01/06","06:07:40","AMMA06",60518.000,"cc",28334.695,6.00,2833.470,1,6,0.100,36166.000,0.200,19266.000,0.300,3949.000,0.500,681.000,1.000,455.000,5.000,1.000
"07/01/06","06:07:46","AMMA06",60895.000,"cc",28298.719,6.00,2829.872,1,6,0.100,36659.000,0.200,19182.000,0.300,3879.000,0.500,736.000,1.000,438.000,5.000,1.000
"07/01/06","06:07:52","AMMA06",61494.000,"cc",28307.330,6.00,2830.733,1,6,0.100,37181.000,0.200,19164.000,0.300,3968.000,0.500,703.000,1.000,478.000,5.000,0
"07/01/06","06:07:58","AMMA06",61697.000,"cc",28352.246,6.00,2835.225,1,6,0.100,37689.000,0.200,18983.000,0.300,3935.000,0.500,676.000,1.000,413.000,5.000,1.000
"07/01/06","06:08:04","AMMA06",61687.000,"cc",28355.453,6.00,2835.545,1,6,0.100,37630.000,0.200,18942.000,0.300,3951.000,0.500,701.000,1.000,463.000,5.000,0
"07/01/06","06:08:10","AMMA06",61174.000,"cc",28252.359,6.00,2825.236,1,6,0.100,36994.000,0.200,19189.000,0.300,3897.000,0.500,638.000,1.000,455.000,5.000,1.000
"07/01/06","06:08:16","AMMA06",61297.000,"cc",28326.611,6.00,2832.661,1,6,0.100,37157.000,0.200,19121.000,0.300,3913.000,0.500,652.000,1.000,453.000,5.000,1.000
"07/01/06","06:08:22","AMMA06",60992.000,"cc",28280.604,6.00,2828.061,1,6,0.100,36997.000,0.200,18896.000,0.300,3913.000,0.500,707.000,1.000,479.000,5.000,0
"07/01/06","06:08:28","AMMA06",61276.000,"cc",28345.356,6.00,2834.536,1,6,0.100,37125.000,0.200,19061.000,0.300,3951.000,0.500,708.000,1.000,430.000,5.000,1.000
"07/01/06","06:08:34","AMMA06",60464.000,"cc",28323.930,6.00,2832.393,1,6,0.100,36746.000,0.200,18901.000,0.300,3683.000,0.500,684.000,1.000,450.000,5.000,0
"07/01/06","06:08:40","AMMA06",60512.000,"cc",28302.402,6.00,2830.241,1,6,0.100,36649.000,0.200,18910.000,0.300,3820.000,0.500,651.000,1.000,482.000,5.000,0
"07/01/06","06:08:46","AMMA06",59728.000,"cc",28361.211,6.00,2836.121,1,6,0.100,36257.000,0.200,18493.000,0.300,3834.000,0.500,701.000,1.000,442.000,5.000,1.000
"07/01/06","06:08:52","AMMA06",58496.000,"cc",28353.838,6.00,2835.384,1,6,0.100,34947.000,0.200,18554.000,0.300,3772.000,0.500,747.000,1.000,475.000,5.000,1.000
"07/01/06","06:08:58","AMMA06",57664.000,"cc",28297.025,6.00,2829.703,1,6,0.100,34371.000,0.200,18560.000,0.300,3579.000,0.500,740.000,1.000,414.000,5.000,0
"07/01/06","06:09:04","AMMA06",58366.000,"cc",28279.342,6.00,2827.934,1,6,0.100,35117.000,0.200,18466.000,0.300,3686.000,0.500,654.000,1.000,443.000,5.000,0
"07/01/06","06:09:10","AMMA06",58917.000,"cc",28319.539,6.00,2831.954,1,6,0.100,35368.000,0.200,18772.000,0.300,3649.000,0.500,680.000,1.000,447.000,5.000,1.000
"07/01/06","06:09:16","AMMA06",60276.000,"cc",28318.270,6.00,2831.827,1,6,0.100,36484.000,0.200,18844.000,0.300,3806.000,0.500,702.000,1.000,440.000,5.000,0
"07/01/06","06:09:22","AMMA06",59341.000,"cc",28266.412,6.00,2826.641,1,6,0.100,35763.000,0.200,18805.000,0.300,3679.000,0.500,654.000,1.000,440.000,5.000,0
"07/01/06","06:09:28","AMMA06",59895.000,"cc",28344.531,6.00,2834.453,1,6,0.100,35966.000,0.200,18984.000,0.300,3871.000,0.500,646.000,1.000,428.000,5.000,0
"07/01/06","06:09:34","AMMA06",59195.000,"cc",28357.725,6.00,2835.773,1,6,0.100,35177.000,0.200,19030.000,0.300,3845.000,0.500,679.000,1.000,464.000,5.000,0
"07/01/06","06:09:40","AMMA06",59310.000,"cc",28277.695,6.00,2827.770,1,6,0.100,35001.000,0.200,19283.000,0.300,3919.000,0.500,682.000,1.000,424.000,5.000,1.000
"07/01/06","06:09:46","AMMA06",59165.000,"cc",28286.324,6.00,2828.633,1,6,0.100,35055.000,0.200,19146.000,0.300,3758.000,0.500,712.000,1.000,493.000,5.000,1.000
"07/01/06","06:09:52","AMMA06",57608.000,"cc",28301.992,6.00,2830.200,1,6,0.100,33673.000,0.200,19017.000,0.300,3802.000,0.500,665.000,1.000,451.000,5.000,0
"07/01/06","06:09:58","AMMA06",57563.000,"cc",28359.672,6.00,2835.967,1,6,0.100,33708.000,0.200,18907.000,0.300,3792.000,0.500,673.000,1.000,483.000,5.000,0
"07/01/06","06:10:04","AMMA06",57441.000,"cc",28323.533,6.00,2832.354,1,6,0.100,33440.000,0.200,19111.000,0.300,3805.000,0.500,631.000,1.000,454.000,5.000,0
"07/01/06","06:10:10","AMMA06",57026.000,"cc",28252.406,6.00,2825.241,1,6,0.100,33261.000,0.200,18878.000,0.300,3745.000,0.500,671.000,1.000,471.000,5.000,0
"07/01/06","06:10:16","AMMA06",56723.000,"cc",28366.938,6.00,2836.694,1,6,0.100,32909.000,0.200,19083.000,0.300,3642.000,0.500,645.000,1.000,444.000,5.000,0
"07/01/06","06:10:22","AMMA06",56950.000,"cc",28376.094,6.00,2837.610,1,6,0.100,33122.000,0.200,18859.000,0.300,3791.000,0.500,720.000,1.000,456.000,5.000,2.000
"07/01/06","06:10:28","AMMA06",56481.000,"cc",28319.076,6.00,2831.908,1,6,0.100,32850.000,0.200,18697.000,0.300,3761.000,0.500,689.000,1.000,484.000,5.000,0
"07/01/06","06:10:34","AMMA06",55921.000,"cc",28260.182,6.00,2826.018,1,6,0.100,32582.000,0.200,18547.000,0.300,3645.000,0.500,648.000,1.000,497.000,5.000,2.000
"07/01/06","06:10:40","AMMA06",56236.000,"cc",28319.281,6.00,2831.928,1,6,0.100,32551.000,0.200,18894.000,0.300,3651.000,0.500,657.000,1.000,482.000,5.000,1.000
"07/01/06","06:10:46","AMMA06",55869.000,"cc",28352.293,6.00,2835.230,1,6,0.100,32724.000,0.200,18249.000,0.300,3771.000,0.500,694.000,1.000,430.000,5.000,1.000
"07/01/06","06:10:52","AMMA06",56326.000,"cc",28318.174,6.00,2831.818,1,6,0.100,32786.000,0.200,18692.000,0.300,3712.000,0.500,695.000,1.000,440.000,5.000,1.000
"07/01/06","06:10:58","AMMA06",56554.000,"cc",28274.342,6.00,2827.434,1,6,0.100,32845.000,0.200,18793.000,0.300,3773.000,0.500,676.000,1.000,467.000,5.000,0
"07/01/06","06:11:04","AMMA06",55970.000,"cc",28333.834,6.00,2833.384,1,6,0.100,32219.000,0.200,18782.000,0.300,3803.000,0.500,681.000,1.000,485.000,5.000,0
"07/01/06","06:11:10","AMMA06",55602.000,"cc",28333.357,6.00,2833.336,1,6,0.100,32212.000,0.200,18570.000,0.300,3685.000,0.500,637.000,1.000,498.000,5.000,0
"07/01/06","06:11:16","AMMA06",56182.000,"cc",28280.000,6.00,2828.000,1,6,0.100,32509.000,0.200,18709.000,0.300,3780.000,0.500,710.000,1.000,474.000,5.000,0
"07/01/06","06:11:22","AMMA06",55960.000,"cc",28343.162,6.00,2834.316,1,6,0.100,32503.000,0.200,18548.000,0.300,3719.000,0.500,723.000,1.000,466.000,5.000,1.000
"07/01/06","06:11:28","AMMA06",55950.000,"cc",28315.191,6.00,2831.519,1,6,0.100,32305.000,0.200,18743.000,0.300,3774.000,0.500,695.000,1.000,433.000,5.000,0
"07/01/06","06:11:34","AMMA06",56153.000,"cc",28318.910,6.00,2831.891,1,6,0.100,32374.000,0.200,18968.000,0.300,3720.000,0.500,639.000,1.000,452.000,5.000,0
"07/01/06","06:11:40","AMMA06",55785.000,"cc",28346.766,6.00,2834.677,1,6,0.100,32132.000,0.200,18706.000,0.300,3784.000,0.500,656.000,1.000,507.000,5.000,0
"07/01/06","06:11:46","AMMA06",55643.000,"cc",28297.143,6.00,2829.714,1,6,0.100,32000.000,0.200,18787.000,0.300,3666.000,0.500,724.000,1.000,466.000,5.000,0
"07/01/06","06:11:52","AMMA06",55270.000,"cc",28324.332,6.00,2832.433,1,6,0.100,32008.000,0.200,18441.000,0.300,3659.000,0.500,699.000,1.000,463.000,5.000,0
"07/01/06","06:11:58","AMMA06",55228.000,"cc",28316.648,6.00,2831.665,1,6,0.100,31662.000,0.200,18588.000,0.300,3805.000,0.500,729.000,1.000,443.000,5.000,1.000
"07/01/06","06:12:04","AMMA06",56195.000,"cc",28307.545,6.00,2830.755,1,6,0.100,32382.000,0.200,18834.000,0.300,3792.000,0.500,721.000,1.000,463.000,5.000,3.000
"07/01/06","06:12:10","AMMA06",55489.000,"cc",28340.590,6.00,2834.059,1,6,0.100,31842.000,0.200,18682.000,0.300,3790.000,0.500,657.000,1.000,517.000,5.000,1.000
"07/01/06","06:12:16","AMMA06",55561.000,"cc",28289.047,6.00,2828.905,1,6,0.100,31811.000,0.200,18726.000,0.300,3873.000,0.500,691.000,1.000,459.000,5.000,1.000
"07/01/06","06:12:22","AMMA06",55191.000,"cc",28341.463,6.00,2834.147,1,6,0.100,31609.000,0.200,18710.000,0.300,3752.000,0.500,660.000,1.000,459.000,5.000,1.000
"07/01/06","06:12:28","AMMA06",55101.000,"cc",28328.219,6.00,2832.822,1,6,0.100,31514.000,0.200,18662.000,0.300,3780.000,0.500,684.000,1.000,461.000,5.000,0
"07/01/06","06:12:34","AMMA06",54910.000,"cc",28289.459,6.00,2828.946,1,6,0.100,31297.000,0.200,18730.000,0.300,3729.000,0.500,689.000,1.000,465.000,5.000,0
"07/01/06","06:12:40","AMMA06",55234.000,"cc",28297.533,6.00,2829.753,1,6,0.100,31578.000,0.200,18760.000,0.300,3716.000,0.500,673.000,1.000,506.000,5.000,1.000
"07/01/06","06:12:46","AMMA06",54819.000,"cc",28347.744,6.00,2834.775,1,6,0.100,31309.000,0.200,18658.000,0.300,3703.000,0.500,704.000,1.000,445.000,5.000,0
"07/01/06","06:12:52","AMMA06",54868.000,"cc",28289.879,6.00,2828.988,1,6,0.100,31375.000,0.200,18609.000,0.300,3716.000,0.500,695.000,1.000,473.000,5.000,0
"07/01/06","06:12:58","AMMA06",54383.000,"cc",28294.848,6.00,2829.485,1,6,0.100,30959.000,0.200,18578.000,0.300,3699.000,0.500,689.000,1.000,458.000,5.000,0
"07/01/06","06:13:04","AMMA06",54395.000,"cc",28331.547,6.00,2833.155,1,6,0.100,30855.000,0.200,18751.000,0.300,3642.000,0.500,664.000,1.000,483.000,5.000,0
"07/01/06","06:13:10","AMMA06",54094.000,"cc",28307.643,6.00,2830.764,1,6,0.100,30665.000,0.200,18499.000,0.300,3792.000,0.500,667.000,1.000,471.000,5.000,0
"07/01/06","06:13:16","AMMA06",54611.000,"cc",28303.846,6.00,2830.385,1,6,0.100,30821.000,0.200,18929.000,0.300,3770.000,0.500,652.000,1.000,438.000,5.000,1.000
"07/01/06","06:13:22","AMMA06",54527.000,"cc",28346.307,6.00,2834.631,1,6,0.100,30966.000,0.200,18612.000,0.300,3786.000,0.500,694.000,1.000,469.000,5.000,0
"07/01/06","06:13:28","AMMA06",54216.000,"cc",28364.369,6.00,2836.437,1,6,0.100,30539.000,0.200,18664.000,0.300,3834.000,0.500,696.000,1.000,483.000,5.000,0
"07/01/06","06:13:34","AMMA06",54735.000,"cc",28315.459,6.00,2831.546,1,6,0.100,30930.000,0.200,18825.000,0.300,3821.000,0.500,680.000,1.000,479.000,5.000,0
"07/01/06","06:13:40","AMMA06",54508.000,"cc",28259.834,6.00,2825.984,1,6,0.100,30864.000,0.200,18708.000,0.300,3876.000,0.500,645.000,1.000,414.000,5.000,1.000
"07/01/06","06:13:46","AMMA06",54471.000,"cc",28315.834,6.00,2831.584,1,6,0.100,30775.000,0.200,18731.000,0.300,3809.000,0.500,698.000,1.000,457.000,5.000,1.000
"07/01/06","06:13:52","AMMA06",54306.000,"cc",28307.449,6.00,2830.745,1,6,0.100,30621.000,0.200,18609.000,0.300,3899.000,0.500,684.000,1.000,493.000,5.000,0
"07/01/06","06:13:58","AMMA06",54435.000,"cc",28365.713,6.00,2836.572,1,6,0.100,30916.000,0.200,18651.000,0.300,3763.000,0.500,663.000,1.000,440.000,5.000,2.000
"07/01/06","06:14:04","AMMA06",53959.000,"cc",28328.191,6.00,2832.819,1,6,0.100,30488.000,0.200,18600.000,0.300,3767.000,0.500,646.000,1.000,458.000,5.000,0
"07/01/06","06:14:10","AMMA06",54148.000,"cc",28314.232,6.00,2831.423,1,6,0.100,30574.000,0.200,18688.000,0.300,3720.000,0.500,685.000,1.000,481.000,5.000,0